Simultaneous Nadir Overpasses (SNOs) Predictions

Prediction of SNOs between METOP-B and NOAA-19 Satellite Orbit:

Table of predicted SNOs for the next 14.0 days since TLE Epoch: 6/26/2021
Index Date (METOP-B) Time (METOP-B) Lat,Lon (METOP-B) SZA (METOP-B ) Date (NOAA-19) Time (NOAA-19) Lat,Lon (NOAA-19) SZA (NOAA-19 ) Distance(km) Time Diff (sec)
1 07/03/2021 12:10:13 80.55, 26.48 58.78 07/03/2021 12:09:08 80.55, 26.44 58.76 0.81 65
2 07/03/2021 13:00:55 -80.54,-166.33 121.24 07/03/2021 13:00:08 -80.55,-166.27 121.24 1.49 47
3 07/03/2021 13:51:35 80.54, 1.01 58.77 07/03/2021 13:51:08 80.55, 1.05 58.77 0.87 27
4 07/03/2021 14:42:17 -80.53, 168.20 121.25 07/03/2021 14:42:08 -80.55, 168.34 121.23 2.98 9
5 07/03/2021 15:32:57 80.54, -24.46 58.76 07/03/2021 15:33:08 80.55, -24.35 58.78 2.31 11
6 07/03/2021 16:23:38 -80.55, 143.06 121.22 07/03/2021 16:24:08 -80.54, 142.95 121.22 2.10 30
7 07/03/2021 17:14:18 80.55, -49.59 58.79 07/03/2021 17:15:08 80.54, -49.74 58.79 2.86 50



Historial Predications of SNOs between METOP-B and NOAA-19
